[[{"header":{"parameterUnit":"m.s-1","parameterCategory":1,"la1":30.2991,"la2":30.254,"lo1":-89.0895,"lo2":-89.0444,"dx":0.0017,"dy":0.0017,"nx":28,"ny":28,"refTime":"2023-02-12T09:00:00:Z","depth":0,"parameterNumber":2,"parameterNumberName":"U-component_of_WINDS"},"data":[0,0,0,0,0,0,0,0,0,0,0,0,0,0,0,0,0,0,0,0,0,0,0,0,0,0,0,0,0,0,0,0,0,0,0,0,0,0,0,0,0,0,0,0,0,0,0,0,0,0,0,0,0,0,0,0,0,0,2.6463,2.6464,0,2.649,2.649,2.6491,2.642,2.6417,2.6415,2.6413,2.6441,2.6444,2.6446,0,0,0,0,0,0,0,0,0,0,0,0,0,2.6352,2.6355,2.6463,2.6464,2.6464,2.649,2.649,2.6491,2.642,2.6417,2.6415,2.6412,2.644,2.6443,2.6447,0,0,0,0,0,0,0,0,0,0,0,0,0,2.6392,2.6356,2.6463,2.6432,2.6429,2.649,2.649,2.6491,2.6421,2.6417,2.6414,2.6411,2.6439,2.6443,2.6447,2.6539,0,0,2.646,2.6462,0,0,0,0,0,0,0,0,2.639,2.6396,2.6436,2.6434,2.6431,2.6448,2.6461,2.6507,2.6421,2.6424,2.6413,2.6409,2.6446,2.6449,2.6462,2.6541,2.6542,2.646,2.6463,2.6465,2.6466,0,0,0,0,0,0,0,2.6387,2.6395,2.6474,2.6437,2.6434,2.6417,2.6419,2.647,2.6453,2.6423,2.6418,2.6422,2.6444,2.6458,2.6462,2.6542,2.646,2.6464,2.6467,2.6468,2.6699,2.6702,0,0,0,0,0,0,2.6388,2.6393,2.6473,2.6475,2.6402,2.6421,2.6424,2.6446,2.6452,2.645,2.6425,2.6419,2.6452,2.6457,2.6463,2.6571,2.6465,2.6469,2.6471,2.6695,2.67,2.6703,0,0,0,0,0,0,2.6386,2.6396,2.6472,2.6432,2.6441,2.6427,2.6453,2.6448,2.6462,2.6454,2.6451,2.6442,2.645,2.6457,2.6521,2.6571,2.647,2.6474,2.6691,2.6697,2.6702,2.679,0,0,0,0,0,0,2.6383,2.6396,2.6431,2.6434,2.6443,2.653,2.6456,2.6451,2.6469,2.6462,2.6469,2.6467,2.6448,2.6515,2.6525,2.6575,2.6478,2.6686,2.6693,2.67,2.6782,2.6798,2.6811,0,0,0,0,0,2.638,2.6454,2.6433,2.6443,2.6486,2.6533,2.6538,2.6514,2.6474,2.6509,2.6504,2.6467,2.6564,2.6522,2.6533,2.6585,2.6683,2.6691,2.6699,2.6776,2.6795,2.681,0,0,0,0,0,0,2.6458,2.6454,2.643,2.6508,2.6521,2.6521,2.6564,2.6535,2.656,2.6552,2.6521,2.6524,2.6594,2.6596,2.6549,2.6675,2.6617,2.6627,2.6671,2.6689,2.6703,2.6701,2.6481,0,0,0,0,0,2.6484,2.6522,2.6517,2.6586,2.6594,2.6578,2.6598,2.6578,2.6591,2.6596,2.6596,2.661,2.6643,2.6666,2.6696,2.6782,2.6783,2.6823,2.6838,2.6849,2.6859,2.6905,2.6923,2.673,2.673,2.673,0,0,2.6539,2.6541,2.6567,2.6602,2.661,2.665,2.6583,2.6629,2.6659,2.6603,2.6664,2.6664,2.6678,2.6753,2.6786,2.6757,2.6912,2.686,2.6869,2.6872,2.6915,2.6934,2.695,2.6736,2.6735,2.6734,0,0,2.6659,2.6665,2.6723,2.6733,2.6746,2.6735,2.6749,2.6753,2.6751,2.6812,2.6771,2.6806,2.6865,2.6876,2.689,2.7015,2.6982,2.7026,2.71,2.7145,2.716,2.7174,2.7219,2.7236,2.7035,2.7036,2.7036,0,2.6725,2.6784,2.6757,2.6806,2.6822,2.6774,2.6833,2.6844,2.6866,2.6879,2.6846,2.6919,2.6924,2.7002,2.7033,2.7045,2.7061,2.7025,2.716,2.7173,2.7186,2.7229,2.7246,2.7041,2.704,2.704,2.7039,0,2.6866,2.6908,2.6953,2.6976,2.6998,2.7052,2.7033,2.7059,2.7037,2.703,2.7093,2.7098,2.7129,2.7146,2.7125,2.7221,2.7202,2.7165,2.7106,2.721,2.725,2.7266,2.7048,2.7046,2.7045,2.7044,0,0,2.7036,2.7044,2.7061,2.7071,2.7082,2.7114,2.7166,2.7196,2.7219,2.7236,2.7279,2.733,2.7296,2.7311,2.7292,2.7331,2.7431,2.7289,2.7289,2.7316,2.7538,2.7566,2.7586,2.741,2.7413,2.7415,2.7537,0,2.7156,2.7244,2.7221,2.731,2.7348,2.7303,2.7348,2.736,2.7355,2.7387,2.7381,2.7418,2.7369,2.7379,2.7416,2.7411,2.7476,2.7402,2.745,2.7452,2.7449,2.7607,2.7637,2.7752,2.7552,2.7555,2.7557,0,2.7307,2.733,2.7422,2.7427,2.7443,2.7484,2.751,2.7541,2.7554,2.7547,2.7565,2.7538,2.7589,2.7529,2.76,2.7551,2.7569,2.757,2.7574,2.7578,2.7511,2.7616,2.7788,2.7805,2.7581,2.7579,2.7577,0,2.7423,2.7477,2.7539,2.7549,2.7557,2.7587,2.7591,2.7601,2.762,2.7643,2.7656,2.7685,2.7701,2.7724,2.7705,2.7663,2.778,2.7718,2.7776,2.7777,2.7803,2.7802,2.7981,2.7814,2.7814,2.7813,2.7813,0,2.7559,2.7617,2.7592,2.763,2.7695,2.7668,2.7732,2.7732,2.7741,2.7778,2.7741,2.7777,2.775,2.7784,2.777,2.7831,2.7838,2.7835,2.783,2.7839,2.7839,2.7851,2.7842,2.7818,2.7817,2.7816,2.7815,0,2.77,2.7685,2.775,2.7751,2.7753,2.7801,2.7802,2.7838,2.783,2.7879,2.7888,2.7876,2.7914,2.7898,2.7938,2.7929,2.8008,2.7992,2.8004,2.8,2.8059,2.8054,2.8253,2.8278,2.8094,2.8096,2.8097,0,2.7788,2.7832,2.7838,2.7861,2.7868,2.7905,2.7925,2.79,2.7923,2.7941,2.7975,2.801,2.8037,2.81,2.8095,2.8126,2.8111,2.8179,2.8116,2.8123,2.8113,2.8111,2.8116,2.8192,2.8194,2.8195,2.8197,0,2.7946,2.7937,2.7967,2.7995,2.802,2.8041,2.8059,2.808,2.8056,2.8083,2.8122,2.8143,2.8184,2.8219,2.8247,2.8251,2.8221,2.8217,2.8232,2.8241,2.8246,2.8245,2.8039,2.8212,2.8211,2.821,2.8209,2.8208,2.8064,2.8101,2.8111,2.8146,2.8157,2.8175,2.8209,2.8205,2.8237,2.8269,2.8252,2.8297,2.8309,2.8343,2.8352,2.8387,2.8361,2.8383,2.8388,2.8394,2.8402,2.824,2.8392,2.8392,2.8391,2.8391,2.839,0,2.8221,2.8225,2.8258,2.8284,2.8312,2.828,2.8298,2.8323,2.8364,2.8377,2.8405,2.845,2.8484,2.8481,2.8513,2.8542,2.8529,2.8551,2.8549,2.8551,2.8424,2.8408,2.8561,2.8561,2.8561,2.8561,2.8561,2.8561,2.8306,2.8367,2.8359,2.8426,2.8429,2.8474,2.8487,2.8503,2.8514,2.8566,2.8594,2.8592,2.8599,2.8631,2.8662,2.866,2.8674,2.8702,2.8695,2.8577,2.856,2.8544,2.8528,2.8705,2.8705,2.8819,2.882,2.8821]},{"header":{"parameterUnit":"m.s-1","parameterCategory":1,"la1":30.2991,"la2":30.254,"lo1":-89.0895,"lo2":-89.0444,"dx":0.0017,"dy":0.0017,"nx":28,"ny":28,"refTime":"2023-02-12T09:00:00:Z","depth":0,"parameterNumber":3,"parameterNumberName":"V-component_of_WINDS"},"data":[0,0,0,0,0,0,0,0,0,0,0,0,0,0,0,0,0,0,0,0,0,0,0,0,0,0,0,0,0,0,0,0,0,0,0,0,0,0,0,0,0,0,0,0,0,0,0,0,0,0,0,0,0,0,0,0,0,0,-3.3671,-3.3673,0,-3.3913,-3.3916,-3.3919,-3.3945,-3.3942,-3.394,-3.3937,-3.4188,-3.4197,-3.4206,0,0,0,0,0,0,0,0,0,0,0,0,0,-3.3233,-3.3241,-3.3671,-3.3674,-3.3677,-3.3913,-3.3916,-3.392,-3.3945,-3.3942,-3.3939,-3.3936,-3.4185,-3.4196,-3.4207,0,0,0,0,0,0,0,0,0,0,0,0,0,-3.3444,-3.3243,-3.367,-3.3718,-3.3724,-3.3912,-3.3916,-3.392,-3.3946,-3.3942,-3.3938,-3.3935,-3.4182,-3.4195,-3.4208,-3.4366,0,0,-3.4249,-3.4255,0,0,0,0,0,0,0,0,-3.3432,-3.346,-3.3708,-3.3715,-3.3723,-3.3895,-3.3854,-3.407,-3.3947,-3.3862,-3.3937,-3.3933,-3.4094,-3.4114,-3.4168,-3.4377,-3.4388,-3.425,-3.4259,-3.4264,-3.4268,0,0,0,0,0,0,0,-3.3417,-3.345,-3.3767,-3.3711,-3.372,-3.3728,-3.3754,-3.3895,-3.3996,-3.3869,-3.3871,-3.3899,-3.4097,-3.4155,-3.4174,-3.4392,-3.425,-3.4262,-3.427,-3.4276,-3.4745,-3.475,0,0,0,0,0,0,-3.3393,-3.3437,-3.3759,-3.3774,-3.3565,-3.3739,-3.3768,-3.3843,-3.3994,-3.4014,-3.3902,-3.39,-3.4134,-3.4158,-3.4183,-3.4379,-3.4264,-3.4277,-3.4285,-3.4741,-3.4746,-3.4751,0,0,0,0,0,0,-3.3384,-3.3422,-3.3749,-3.3607,-3.3649,-3.3751,-3.3835,-3.385,-3.3908,-3.402,-3.4038,-3.3943,-3.4132,-3.4164,-3.432,-3.4388,-3.4283,-3.4295,-3.4736,-3.4743,-3.4749,-3.4772,0,0,0,0,0,0,-3.3371,-3.3418,-3.3478,-3.3608,-3.3656,-3.3882,-3.3839,-3.3858,-3.3931,-3.393,-3.4062,-3.4081,-3.4131,-3.43,-3.4334,-3.4405,-3.4306,-3.473,-3.4739,-3.4747,-3.4765,-3.4778,-3.4789,0,0,0,0,0,-3.3355,-3.3475,-3.3481,-3.352,-3.3733,-3.3885,-3.3913,-3.3968,-3.3936,-3.3998,-3.407,-3.4076,-3.4375,-3.4316,-3.4354,-3.443,-3.4726,-3.4736,-3.4746,-3.476,-3.4776,-3.4789,0,0,0,0,0,0,-3.3352,-3.3493,-3.3501,-3.3666,-3.3763,-3.3889,-3.3969,-3.3983,-3.4092,-3.4087,-3.4151,-3.4181,-3.4335,-3.4398,-3.433,-3.4592,-3.4548,-3.4566,-3.4545,-3.4561,-3.4573,-3.4555,-3.4317,0,0,0,0,0,-3.337,-3.3481,-3.3598,-3.3733,-3.3781,-3.3867,-3.3935,-3.3969,-3.4073,-3.4115,-3.4198,-3.4299,-3.4416,-3.4492,-3.4605,-3.4774,-3.4805,-3.4845,-3.4857,-3.4867,-3.4882,-3.4978,-3.4998,-3.4784,-3.4783,-3.4783,0,0,-3.3409,-3.35,-3.3566,-3.3734,-3.3814,-3.3928,-3.3901,-3.4023,-3.4109,-3.4133,-3.4286,-3.4351,-3.4469,-3.4633,-3.4709,-3.469,-3.4948,-3.4879,-3.4886,-3.4896,-3.499,-3.501,-3.5028,-3.479,-3.4789,-3.4788,0,0,-3.3539,-3.3618,-3.3739,-3.3819,-3.394,-3.3997,-3.4026,-3.415,-3.4194,-3.4349,-3.437,-3.4473,-3.4673,-3.4756,-3.4825,-3.4988,-3.4999,-3.5023,-3.5086,-3.5179,-3.5196,-3.5211,-3.5271,-3.5291,-3.5038,-3.5038,-3.5038,0,-3.3572,-3.3745,-3.38,-3.3922,-3.3996,-3.4023,-3.4147,-3.4222,-3.4374,-3.4426,-3.4402,-3.4654,-3.4735,-3.492,-3.4959,-3.5013,-3.505,-3.5009,-3.5188,-3.5204,-3.522,-3.5278,-3.53,-3.504,-3.504,-3.5039,-3.5039,0,-3.3781,-3.3901,-3.3984,-3.413,-3.4213,-3.4336,-3.4411,-3.4489,-3.4516,-3.4575,-3.4734,-3.4832,-3.4966,-3.5013,-3.504,-3.5202,-3.5187,-3.5175,-3.5132,-3.5241,-3.5297,-3.5319,-3.5043,-3.5042,-3.5042,-3.5041,0,0,-3.3916,-3.409,-3.412,-3.4188,-3.4323,-3.4417,-3.4542,-3.4673,-3.474,-3.4844,-3.4951,-3.512,-3.511,-3.5188,-3.5225,-3.5307,-3.5432,-3.5286,-3.5289,-3.5311,-3.5619,-3.5628,-3.5652,-3.5439,-3.5444,-3.5447,-3.5609,0,-3.4062,-3.4283,-3.4337,-3.4527,-3.4639,-3.4666,-3.4775,-3.4871,-3.493,-3.5035,-3.51,-3.522,-3.5197,-3.5245,-3.5326,-3.5399,-3.5495,-3.5388,-3.5541,-3.5546,-3.5512,-3.5681,-3.5691,-3.5839,-3.5631,-3.5635,-3.5638,0,-3.4262,-3.4371,-3.4572,-3.4694,-3.4743,-3.484,-3.4965,-3.5064,-3.5174,-3.5212,-3.5299,-3.5329,-3.5461,-3.5411,-3.5595,-3.5521,-3.5587,-3.5633,-3.564,-3.5658,-3.5599,-3.5705,-3.5887,-3.591,-3.5672,-3.5669,-3.5667,0,-3.4342,-3.4538,-3.4684,-3.4741,-3.4887,-3.4954,-3.5018,-3.5125,-3.5201,-3.5311,-3.5361,-3.5485,-3.5554,-3.565,-3.5713,-3.567,-3.5893,-3.5847,-3.5929,-3.5928,-3.5976,-3.5972,-3.6173,-3.6016,-3.6015,-3.6015,-3.6014,0,-3.4501,-3.4623,-3.4722,-3.4812,-3.4951,-3.5012,-3.5148,-3.5213,-3.5307,-3.5412,-3.5443,-3.554,-3.5617,-3.5725,-3.5775,-3.5922,-3.5952,-3.5987,-3.5999,-3.5985,-3.5981,-3.603,-3.6022,-3.6021,-3.602,-3.6018,-3.6017,0,-3.4614,-3.4685,-3.4846,-3.4971,-3.5006,-3.5102,-3.521,-3.53,-3.5359,-3.5491,-3.5526,-3.562,-3.575,-3.5822,-3.5985,-3.6018,-3.6182,-3.6188,-3.6145,-3.6151,-3.6229,-3.6221,-3.647,-3.6507,-3.6323,-3.6325,-3.6326,0,-3.4711,-3.4806,-3.4941,-3.5013,-3.5078,-3.5193,-3.5271,-3.5335,-3.5415,-3.5548,-3.5622,-3.5753,-3.5862,-3.6068,-3.6152,-3.6277,-3.6288,-3.6366,-3.6307,-3.629,-3.6291,-3.6285,-3.6296,-3.6377,-3.6378,-3.638,-3.6381,0,-3.4877,-3.4907,-3.5018,-3.5141,-3.5233,-3.5334,-3.5433,-3.5491,-3.5572,-3.5661,-3.5793,-3.5877,-3.6044,-3.6174,-3.6306,-3.6374,-3.6392,-3.6399,-3.6425,-3.6412,-3.6384,-3.6402,-3.6175,-3.6393,-3.6392,-3.6391,-3.639,-3.639,-3.4986,-3.5072,-3.5181,-3.5304,-3.5385,-3.5478,-3.5569,-3.564,-3.5751,-3.5891,-3.5923,-3.6063,-3.6173,-3.6352,-3.6423,-3.6535,-3.6521,-3.6558,-3.6567,-3.6576,-3.658,-3.6365,-3.6559,-3.6559,-3.6559,-3.6558,-3.6558,0,-3.5155,-3.5226,-3.5338,-3.5477,-3.5574,-3.5581,-3.5692,-3.5773,-3.5896,-3.5996,-3.6102,-3.6256,-3.6383,-3.6477,-3.6607,-3.6679,-3.6691,-3.6711,-3.6707,-3.6723,-3.6584,-3.655,-3.67,-3.67,-3.67,-3.67,-3.67,-3.6699,-3.5254,-3.5401,-3.5445,-3.5633,-3.5704,-3.5841,-3.5904,-3.5991,-3.6071,-3.6241,-3.6346,-3.6407,-3.6506,-3.6643,-3.6761,-3.6786,-3.6833,-3.6853,-3.6879,-3.6748,-3.6733,-3.6718,-3.6686,-3.6862,-3.6863,-3.7009,-3.701,-3.7011]}]]